GIA408 WIII-WADD

Flight info

Callsign GIA408
Flight time 1h 22m
Altitude 37000
Route CA T3 MOVMO
Aircraft A20N/M-SDE2E3FGHIRWXY/LB1

Departure

Time 2026-05-08 03:48
Airport Soekarno-Hatta International Airport (WIII)

Arrival

Time 2026-05-08 05:11
Airport Denpasar I Gusti Ngurah Rai International Airport (WADD)
Time Latitude Longitude Altitude Speed Heading
2026-05-08 03:13 -6.11615 106.66827 32 ft 0 kts 158°
2026-05-08 03:35 -6.11614 106.66827 32 ft 0 kts 158°
2026-05-08 03:36 -6.11608 106.66824 32 ft 2 kts 156°
2026-05-08 03:36 -6.11593 106.66818 32 ft 2 kts 158°
2026-05-08 03:36 -6.11578 106.66812 32 ft 2 kts 158°
2026-05-08 03:37 -6.11562 106.66806 31 ft 2 kts 158°
2026-05-08 03:37 -6.11547 106.66800 32 ft 2 kts 159°
2026-05-08 03:37 -6.11534 106.66794 32 ft 2 kts 159°
2026-05-08 03:37 -6.11518 106.66790 32 ft 2 kts 216°
2026-05-08 03:38 -6.11509 106.66804 31 ft 2 kts 249°
2026-05-08 03:38 -6.11506 106.66810 32 ft 0 kts 248°
2026-05-08 03:41 -6.11517 106.66782 32 ft 12 kts 248°
2026-05-08 03:41 -6.11557 106.66685 30 ft 17 kts 248°
2026-05-08 03:41 -6.11605 106.66564 32 ft 20 kts 249°
2026-05-08 03:42 -6.11639 106.66428 32 ft 19 kts 292°
2026-05-08 03:42 -6.11525 106.66362 32 ft 20 kts 338°
2026-05-08 03:42 -6.11389 106.66307 31 ft 22 kts 337°
2026-05-08 03:42 -6.11358 106.66241 31 ft 10 kts 252°
2026-05-08 03:43 -6.11386 106.66168 32 ft 13 kts 249°
2026-05-08 03:43 -6.11430 106.66055 31 ft 21 kts 249°
2026-05-08 03:43 -6.11491 106.65903 28 ft 26 kts 248°
2026-05-08 03:43 -6.11559 106.65731 28 ft 27 kts 249°
2026-05-08 03:44 -6.11626 106.65552 29 ft 28 kts 251°
2026-05-08 03:44 -6.11699 106.65375 34 ft 27 kts 245°
2026-05-08 03:44 -6.11771 106.65204 33 ft 28 kts 248°
2026-05-08 03:44 -6.11842 106.65021 37 ft 28 kts 248°
2026-05-08 03:45 -6.11914 106.64839 36 ft 29 kts 248°
2026-05-08 03:45 -6.11989 106.64647 37 ft 29 kts 246°
2026-05-08 03:45 -6.12069 106.64452 36 ft 31 kts 248°
2026-05-08 03:45 -6.12151 106.64251 37 ft 31 kts 248°
2026-05-08 03:46 -6.12233 106.64044 36 ft 31 kts 248°
2026-05-08 03:46 -6.12248 106.63915 41 ft 16 kts 300°
2026-05-08 03:46 -6.12233 106.63900 40 ft 0 kts 325°
2026-05-08 03:46 -6.12232 106.63899 40 ft 1 kts 325°
2026-05-08 03:47 -6.12183 106.63886 41 ft 15 kts
2026-05-08 03:47 -6.12090 106.63929 38 ft 13 kts 60°
2026-05-08 03:47 -6.12040 106.64047 36 ft 36 kts 67°
2026-05-08 03:47 -6.11852 106.64508 36 ft 103 kts 68°
2026-05-08 03:48 -6.11643 106.65028 38 ft 138 kts 68°
2026-05-08 03:48 -6.11114 106.66368 496 ft 157 kts 68°
2026-05-08 03:48 -6.10713 106.67418 989 ft 165 kts 68°
2026-05-08 03:48 -6.10511 106.68146 1408 ft 161 kts 88°
2026-05-08 03:49 -6.10713 106.69227 2019 ft 161 kts 108°
2026-05-08 03:49 -6.11249 106.70742 2493 ft 186 kts 111°
2026-05-08 03:49 -6.11562 106.71597 2789 ft 199 kts 110°
2026-05-08 03:49 -6.12211 106.73468 3400 ft 229 kts 109°
2026-05-08 03:50 -6.12561 106.74533 3798 ft 243 kts 108°
2026-05-08 03:50 -6.13104 106.76219 4401 ft 264 kts 108°
2026-05-08 03:50 -6.13670 106.78004 5265 ft 270 kts 108°
2026-05-08 03:50 -6.14241 106.79809 6227 ft 273 kts 108°
2026-05-08 03:51 -6.14812 106.81616 7096 ft 277 kts 108°
2026-05-08 03:51 -6.15398 106.83470 7966 ft 280 kts 108°
2026-05-08 03:51 -6.15993 106.85349 8832 ft 284 kts 108°
2026-05-08 03:51 -6.16596 106.87253 9689 ft 288 kts 108°
2026-05-08 03:52 -6.17210 106.89190 10402 ft 296 kts 108°
2026-05-08 03:52 -6.17861 106.91243 10674 ft 320 kts 108°
2026-05-08 03:52 -6.18560 106.93446 10946 ft 340 kts 108°
2026-05-08 03:52 -6.19286 106.95736 11633 ft 345 kts 108°
2026-05-08 03:53 -6.20020 106.98049 12396 ft 348 kts 108°
2026-05-08 03:53 -6.20758 107.00377 13125 ft 353 kts 108°
2026-05-08 03:53 -6.21506 107.02738 13844 ft 356 kts 108°
2026-05-08 03:53 -6.22262 107.05124 14486 ft 360 kts 108°
2026-05-08 03:54 -6.23024 107.07530 15117 ft 363 kts 108°
2026-05-08 03:54 -6.23794 107.09964 15750 ft 367 kts 108°
2026-05-08 03:54 -6.24572 107.12422 16359 ft 371 kts 108°
2026-05-08 03:54 -6.25358 107.14903 16961 ft 374 kts 108°
2026-05-08 03:55 -6.26142 107.17381 17549 ft 378 kts 108°
2026-05-08 03:55 -6.26943 107.19912 18135 ft 382 kts 108°
2026-05-08 03:55 -6.27752 107.22468 18637 ft 385 kts 108°
2026-05-08 03:55 -6.28567 107.25042 19134 ft 388 kts 108°
2026-05-08 03:56 -6.29390 107.27642 19631 ft 392 kts 108°
2026-05-08 03:56 -6.30219 107.30261 20118 ft 395 kts 108°
2026-05-08 03:56 -6.31055 107.32904 20603 ft 399 kts 108°
2026-05-08 03:56 -6.31898 107.35572 21074 ft 402 kts 107°
2026-05-08 03:57 -6.32749 107.38264 21558 ft 406 kts 107°
2026-05-08 03:57 -6.33608 107.40979 22025 ft 409 kts 107°
2026-05-08 03:57 -6.34476 107.43726 22490 ft 413 kts 107°
2026-05-08 03:57 -6.35337 107.46452 22948 ft 416 kts 107°
2026-05-08 03:58 -6.36216 107.49235 23412 ft 419 kts 107°
2026-05-08 03:58 -6.37103 107.52043 23790 ft 422 kts 107°
2026-05-08 03:58 -6.37995 107.54869 24178 ft 425 kts 107°
2026-05-08 03:58 -6.38893 107.57714 24558 ft 427 kts 107°
2026-05-08 03:59 -6.39794 107.60568 24928 ft 430 kts 107°
2026-05-08 03:59 -6.40703 107.63448 25292 ft 433 kts 107°
2026-05-08 03:59 -6.41616 107.66340 25646 ft 435 kts 107°
2026-05-08 03:59 -6.42534 107.69250 26008 ft 438 kts 107°
2026-05-08 04:00 -6.43457 107.72175 26347 ft 440 kts 107°
2026-05-08 04:00 -6.44386 107.75121 26696 ft 443 kts 107°
2026-05-08 04:00 -6.45321 107.78086 27025 ft 445 kts 107°
2026-05-08 04:00 -6.46245 107.81020 27340 ft 447 kts 107°
2026-05-08 04:01 -6.47187 107.84010 27633 ft 450 kts 107°
2026-05-08 04:01 -6.48138 107.87029 27949 ft 452 kts 107°
2026-05-08 04:01 -6.49089 107.90047 28250 ft 455 kts 107°
2026-05-08 04:01 -6.50047 107.93090 28545 ft 457 kts 107°
2026-05-08 04:02 -6.51010 107.96146 28824 ft 459 kts 107°
2026-05-08 04:02 -6.51978 107.99222 29100 ft 462 kts 107°
2026-05-08 04:02 -6.52948 108.02306 29371 ft 464 kts 107°
2026-05-08 04:02 -6.53924 108.05406 29648 ft 466 kts 107°
2026-05-08 04:03 -6.54903 108.08517 29905 ft 468 kts 107°
2026-05-08 04:03 -6.56876 108.14792 30395 ft 472 kts 107°
2026-05-08 04:03 -6.57868 108.17948 30640 ft 474 kts 107°
2026-05-08 04:04 -6.58850 108.21074 30890 ft 476 kts 107°
2026-05-08 04:04 -6.59845 108.24242 31190 ft 476 kts 107°
2026-05-08 04:04 -6.60843 108.27414 31521 ft 476 kts 107°
2026-05-08 04:04 -6.61845 108.30581 31863 ft 475 kts 107°
2026-05-08 04:05 -6.62844 108.33747 32196 ft 474 kts 107°
2026-05-08 04:05 -6.63838 108.36904 32524 ft 474 kts 107°
2026-05-08 04:05 -6.64829 108.40063 32856 ft 473 kts 107°
2026-05-08 04:05 -6.65820 108.43232 33164 ft 472 kts 107°
2026-05-08 04:06 -6.66805 108.46379 33434 ft 472 kts 107°
2026-05-08 04:06 -6.67793 108.49531 33683 ft 472 kts 107°
2026-05-08 04:06 -6.68783 108.52686 33930 ft 472 kts 107°
2026-05-08 04:06 -6.69702 108.55851 34162 ft 471 kts 102°
2026-05-08 04:07 -6.70301 108.59083 34394 ft 469 kts 97°
2026-05-08 04:07 -6.70779 108.62288 34608 ft 468 kts 97°
2026-05-08 04:07 -6.71274 108.65525 34822 ft 468 kts 98°
2026-05-08 04:07 -6.71773 108.68757 35032 ft 467 kts 97°
2026-05-08 04:08 -6.72267 108.71989 35241 ft 467 kts 97°
2026-05-08 04:08 -6.72760 108.75215 35460 ft 466 kts 97°
2026-05-08 04:08 -6.73244 108.78386 35688 ft 466 kts 97°
2026-05-08 04:08 -6.73736 108.81602 35904 ft 465 kts 97°
2026-05-08 04:09 -6.74229 108.84816 36123 ft 465 kts 97°
2026-05-08 04:09 -6.74721 108.88029 36350 ft 464 kts 97°
2026-05-08 04:09 -6.75212 108.91236 36581 ft 464 kts 97°
2026-05-08 04:09 -6.75704 108.94447 36782 ft 464 kts 97°
2026-05-08 04:10 -6.76684 109.00848 36861 ft 462 kts 97°
2026-05-08 04:10 -6.77663 109.07245 36856 ft 463 kts 97°
2026-05-08 04:11 -6.78640 109.13643 36853 ft 463 kts 97°
2026-05-08 04:11 -6.79617 109.20044 36852 ft 463 kts 97°
2026-05-08 04:12 -6.80593 109.26447 36857 ft 463 kts 97°
2026-05-08 04:12 -6.81570 109.32857 36854 ft 463 kts 97°
2026-05-08 04:13 -6.82539 109.39224 36852 ft 463 kts 97°
2026-05-08 04:13 -6.83514 109.45631 36853 ft 463 kts 98°
2026-05-08 04:14 -6.84489 109.52045 36850 ft 464 kts 98°
2026-05-08 04:14 -6.85465 109.58471 36848 ft 464 kts 98°
2026-05-08 04:15 -6.86440 109.64898 36855 ft 464 kts 98°
2026-05-08 04:15 -6.87414 109.71324 36855 ft 465 kts 98°
2026-05-08 04:16 -6.88387 109.77753 36854 ft 465 kts 98°
2026-05-08 04:16 -6.89360 109.84185 36854 ft 464 kts 98°
2026-05-08 04:17 -6.90332 109.90611 36847 ft 464 kts 98°
2026-05-08 04:17 -6.91297 109.96999 36843 ft 464 kts 98°
2026-05-08 04:18 -6.92254 110.03344 36843 ft 464 kts 98°
2026-05-08 04:18 -6.93225 110.09778 36836 ft 466 kts 98°
2026-05-08 04:19 -6.94196 110.16227 36836 ft 466 kts 98°
2026-05-08 04:19 -6.95166 110.22679 36830 ft 465 kts 98°
2026-05-08 04:20 -6.96135 110.29127 36829 ft 466 kts 98°
2026-05-08 04:20 -6.97104 110.35579 36824 ft 466 kts 98°
2026-05-08 04:21 -6.97547 110.42090 36827 ft 466 kts 90°
2026-05-08 04:21 -6.97655 110.48618 36831 ft 466 kts 91°
2026-05-08 04:22 -6.97777 110.55101 36828 ft 467 kts 91°
2026-05-08 04:22 -6.97896 110.61628 36818 ft 466 kts 91°
2026-05-08 04:23 -6.98014 110.68170 36827 ft 467 kts 91°
2026-05-08 04:23 -6.98129 110.74711 36818 ft 467 kts 91°
2026-05-08 04:24 -6.98241 110.81246 36813 ft 467 kts 91°
2026-05-08 04:24 -6.98355 110.87779 36825 ft 466 kts 91°
2026-05-08 04:25 -6.98469 110.94301 36818 ft 466 kts 91°
2026-05-08 04:25 -6.98581 111.00822 36824 ft 466 kts 91°
2026-05-08 04:26 -6.98691 111.07300 36830 ft 466 kts 91°
2026-05-08 04:26 -6.98800 111.13825 36820 ft 466 kts 91°
2026-05-08 04:27 -6.98909 111.20348 36831 ft 466 kts 91°
2026-05-08 04:27 -6.99018 111.26873 36828 ft 466 kts 91°
2026-05-08 04:28 -6.99125 111.33397 36828 ft 466 kts 91°
2026-05-08 04:28 -6.99521 111.39899 36824 ft 466 kts 99°
2026-05-08 04:29 -7.01102 111.46176 36825 ft 466 kts 110°
2026-05-08 04:29 -7.03586 111.52186 36819 ft 465 kts 113°
2026-05-08 04:30 -7.06094 111.58183 36819 ft 465 kts 113°
2026-05-08 04:30 -7.08602 111.64185 36821 ft 465 kts 113°
2026-05-08 04:31 -7.11112 111.70185 36824 ft 465 kts 113°
2026-05-08 04:31 -7.13621 111.76186 36825 ft 464 kts 113°
2026-05-08 04:32 -7.16127 111.82184 36822 ft 464 kts 114°
2026-05-08 04:32 -7.18623 111.88158 36823 ft 463 kts 114°
2026-05-08 04:33 -7.21120 111.94134 36821 ft 463 kts 114°
2026-05-08 04:33 -7.23601 112.00079 36823 ft 463 kts 114°
2026-05-08 04:34 -7.26095 112.06054 36838 ft 463 kts 114°
2026-05-08 04:34 -7.28586 112.12027 36830 ft 462 kts 114°
2026-05-08 04:35 -7.31073 112.17992 36822 ft 462 kts 113°
2026-05-08 04:35 -7.33556 112.23951 36830 ft 461 kts 113°
2026-05-08 04:36 -7.36041 112.29915 36824 ft 461 kts 113°
2026-05-08 04:36 -7.38507 112.35838 36827 ft 461 kts 113°
2026-05-08 04:37 -7.40985 112.41792 36826 ft 461 kts 113°
2026-05-08 04:37 -7.43061 112.46783 36834 ft 461 kts 113°
2026-05-08 04:38 -7.45542 112.52747 36839 ft 461 kts 113°
2026-05-08 04:38 -7.48421 112.59675 36841 ft 461 kts 113°
2026-05-08 04:39 -7.50480 112.64633 36844 ft 461 kts 113°
2026-05-08 04:39 -7.52960 112.70603 36844 ft 462 kts 113°
2026-05-08 04:40 -7.55442 112.76580 36851 ft 462 kts 113°
2026-05-08 04:40 -7.57926 112.82569 36845 ft 463 kts 113°
2026-05-08 04:41 -7.60410 112.88556 36856 ft 463 kts 113°
2026-05-08 04:41 -7.62894 112.94546 36847 ft 463 kts 113°
2026-05-08 04:42 -7.65364 113.00508 36850 ft 464 kts 113°
2026-05-08 04:42 -7.67851 113.06512 36859 ft 464 kts 113°
2026-05-08 04:43 -7.70340 113.12523 36861 ft 465 kts 113°
2026-05-08 04:43 -7.72833 113.18546 36860 ft 465 kts 114°
2026-05-08 04:44 -7.75322 113.24565 36865 ft 465 kts 114°
2026-05-08 04:44 -7.77818 113.30602 36869 ft 466 kts 114°
2026-05-08 04:45 -7.80310 113.36630 36868 ft 466 kts 114°
2026-05-08 04:45 -7.82788 113.42629 36873 ft 466 kts 114°
2026-05-08 04:46 -7.85275 113.48653 36506 ft 466 kts 114°
2026-05-08 04:46 -7.86523 113.51676 36051 ft 466 kts 114°
2026-05-08 04:46 -7.87764 113.54686 35597 ft 465 kts 114°
2026-05-08 04:47 -7.89010 113.57704 35155 ft 466 kts 114°
2026-05-08 04:47 -7.90258 113.60731 34718 ft 468 kts 114°
2026-05-08 04:47 -7.91512 113.63771 34315 ft 470 kts 114°
2026-05-08 04:47 -7.92766 113.66812 33908 ft 470 kts 114°
2026-05-08 04:48 -7.94024 113.69866 33462 ft 471 kts 114°
2026-05-08 04:48 -7.95282 113.72920 33021 ft 472 kts 114°
2026-05-08 04:48 -7.96542 113.75979 32570 ft 472 kts 114°
2026-05-08 04:48 -7.97804 113.79043 32139 ft 473 kts 114°
2026-05-08 04:49 -7.99090 113.82090 31703 ft 473 kts 117°
2026-05-08 04:49 -8.00804 113.84900 31289 ft 471 kts 129°
2026-05-08 04:49 -8.03052 113.87298 30868 ft 470 kts 141°
2026-05-08 04:49 -8.05727 113.89172 30471 ft 467 kts 153°
2026-05-08 04:50 -8.08669 113.90428 30067 ft 462 kts 165°
2026-05-08 04:50 -8.11800 113.91057 29620 ft 456 kts 174°
2026-05-08 04:50 -8.14955 113.91379 29149 ft 453 kts 176°
2026-05-08 04:50 -8.18078 113.91670 28682 ft 450 kts 175°
2026-05-08 04:51 -8.21183 113.91987 28232 ft 447 kts 175°
2026-05-08 04:51 -8.24269 113.92335 27789 ft 445 kts 174°
2026-05-08 04:51 -8.27331 113.92700 27344 ft 442 kts 174°
2026-05-08 04:51 -8.30375 113.93074 26912 ft 439 kts 174°
2026-05-08 04:52 -8.33393 113.93448 26525 ft 435 kts 174°
2026-05-08 04:52 -8.36389 113.93820 25911 ft 434 kts 174°
2026-05-08 04:52 -8.39376 113.94191 25342 ft 431 kts 174°
2026-05-08 04:52 -8.42346 113.94560 24790 ft 427 kts 174°
2026-05-08 04:53 -8.45286 113.94925 24230 ft 424 kts 174°
2026-05-08 04:53 -8.48211 113.95287 23686 ft 421 kts 174°
2026-05-08 04:53 -8.51116 113.95646 23080 ft 418 kts 174°
2026-05-08 04:53 -8.53994 113.96004 22524 ft 414 kts 174°
2026-05-08 04:54 -8.56775 113.96689 21974 ft 412 kts 160°
2026-05-08 04:54 -8.59250 113.98054 21379 ft 411 kts 145°
2026-05-08 04:54 -8.61355 114.00042 20430 ft 419 kts 130°
2026-05-08 04:54 -8.62913 114.02548 19543 ft 425 kts 115°
2026-05-08 04:55 -8.63826 114.05389 18836 ft 425 kts 102°
2026-05-08 04:55 -8.64319 114.08311 18272 ft 420 kts 98°
2026-05-08 04:55 -8.64678 114.11225 17644 ft 415 kts 97°
2026-05-08 04:55 -8.65015 114.14096 16999 ft 410 kts 97°
2026-05-08 04:56 -8.65367 114.16947 16345 ft 406 kts 97°
2026-05-08 04:56 -8.65734 114.19761 15714 ft 402 kts 98°
2026-05-08 04:56 -8.66109 114.22550 15097 ft 398 kts 98°
2026-05-08 04:56 -8.66486 114.25308 14498 ft 394 kts 98°
2026-05-08 04:57 -8.66864 114.28041 13913 ft 391 kts 98°
2026-05-08 04:57 -8.67232 114.30710 13302 ft 387 kts 98°
2026-05-08 04:57 -8.67600 114.33384 12737 ft 382 kts 98°
2026-05-08 04:57 -8.67967 114.36018 12174 ft 376 kts 98°
2026-05-08 04:58 -8.68329 114.38625 11625 ft 371 kts 98°
2026-05-08 04:58 -8.68682 114.41200 11069 ft 367 kts 97°
2026-05-08 04:58 -8.69027 114.43733 10608 ft 360 kts 97°
2026-05-08 04:58 -8.69362 114.46187 10454 ft 344 kts 97°
2026-05-08 04:59 -8.69684 114.48531 10320 ft 329 kts 97°
2026-05-08 04:59 -8.69992 114.50774 10209 ft 316 kts 97°
2026-05-08 04:59 -8.70286 114.52925 10097 ft 302 kts 97°
2026-05-08 04:59 -8.70566 114.54994 9869 ft 293 kts 97°
2026-05-08 05:00 -8.70835 114.56996 9523 ft 290 kts 97°
2026-05-08 05:00 -8.71106 114.59008 9107 ft 288 kts 97°
2026-05-08 05:00 -8.71380 114.61007 8719 ft 287 kts 97°
2026-05-08 05:00 -8.71652 114.62991 8323 ft 284 kts 97°
2026-05-08 05:01 -8.71921 114.64967 7931 ft 282 kts 97°
2026-05-08 05:01 -8.72184 114.66924 7559 ft 280 kts 97°
2026-05-08 05:01 -8.72447 114.68867 7165 ft 278 kts 97°
2026-05-08 05:01 -8.72709 114.70808 6752 ft 278 kts 97°
2026-05-08 05:02 -8.72971 114.72733 6372 ft 276 kts 97°
2026-05-08 05:02 -8.73231 114.74647 6010 ft 274 kts 97°
2026-05-08 05:02 -8.73489 114.76547 5601 ft 272 kts 97°
2026-05-08 05:02 -8.73746 114.78433 5261 ft 268 kts 97°
2026-05-08 05:03 -8.73998 114.80302 4846 ft 268 kts 97°
2026-05-08 05:03 -8.74245 114.82131 4478 ft 265 kts 97°
2026-05-08 05:03 -8.74496 114.83984 4071 ft 264 kts 97°
2026-05-08 05:03 -8.74743 114.85804 3747 ft 260 kts 98°
2026-05-08 05:04 -8.74989 114.87617 3353 ft 259 kts 98°
2026-05-08 05:04 -8.75228 114.89385 3251 ft 246 kts 98°
2026-05-08 05:04 -8.75447 114.91041 3131 ft 229 kts 95°
2026-05-08 05:04 -8.75473 114.92597 3033 ft 214 kts 90°
2026-05-08 05:05 -8.75475 114.94089 2768 ft 209 kts 91°
2026-05-08 05:05 -8.75482 114.95545 2671 ft 209 kts 91°
2026-05-08 05:05 -8.75491 114.96986 2568 ft 200 kts 92°
2026-05-08 05:05 -8.75502 114.98350 2490 ft 187 kts 92°
2026-05-08 05:06 -8.75512 114.99624 2385 ft 176 kts 91°
2026-05-08 05:06 -8.75486 115.00843 2028 ft 169 kts 90°
2026-05-08 05:06 -8.75433 115.01984 1932 ft 161 kts 89°
2026-05-08 05:06 -8.75378 115.03022 1830 ft 134 kts 90°
2026-05-08 05:07 -8.75331 115.03911 1722 ft 123 kts 92°
2026-05-08 05:07 -8.75299 115.04764 1699 ft 123 kts 90°
2026-05-08 05:07 -8.75269 115.05636 1697 ft 126 kts 90°
2026-05-08 05:07 -8.75233 115.06524 1691 ft 125 kts 92°
2026-05-08 05:08 -8.75197 115.07405 1541 ft 126 kts 92°
2026-05-08 05:08 -8.75165 115.08272 1379 ft 122 kts 91°
2026-05-08 05:08 -8.75132 115.09129 1230 ft 120 kts 91°
2026-05-08 05:08 -8.75075 115.09966 1047 ft 120 kts 91°
2026-05-08 05:09 -8.75025 115.10796 874 ft 117 kts 92°
2026-05-08 05:09 -8.75000 115.11625 777 ft 118 kts 91°
2026-05-08 05:09 -8.74971 115.12425 708 ft 119 kts 91°
2026-05-08 05:09 -8.74950 115.13265 585 ft 120 kts 92°
2026-05-08 05:10 -8.74920 115.14104 368 ft 119 kts 93°
2026-05-08 05:10 -8.74875 115.15671 28 ft 102 kts 90°
2026-05-08 05:10 -8.74859 115.16283 20 ft 62 kts 89°
2026-05-08 05:11 -8.74847 115.16579 21 ft 37 kts 89°
2026-05-08 05:11 -8.74773 115.16813 19 ft 29 kts 60°
2026-05-08 05:11 -8.74678 115.16829 21 ft 13 kts 293°
2026-05-08 05:11 -8.74672 115.16727 20 ft 17 kts 267°
2026-05-08 05:12 -8.74677 115.16596 20 ft 20 kts 268°
2026-05-08 05:12 -8.74681 115.16484 20 ft 0 kts 268°
2026-05-08 05:12 -8.74682 115.16450 20 ft 10 kts 268°
2026-05-08 05:12 -8.74640 115.16406 20 ft 11 kts 351°
2026-05-08 05:13 -8.74572 115.16403 22 ft 4 kts 358°
2026-05-08 05:13 -8.74553 115.16403 21 ft 2 kts 358°
2026-05-08 05:13 -8.74552 115.16403 20 ft 0 kts 359°